Jackson, MI

8:48 PM EDT on October 22, 2019 (GMT -0400)
Jackson County-Reynolds

Weather History for KJXN - August, 2019

Change the Weather History Date:

Saturday, August 24, 2019

  Actual Average Record
Temperature  
Mean Temperature 61 °F 69 °F  
Max Temperature 75 °F 80 °F 95 °F (1948)
Min Temperature 47 °F 58 °F 42 °F (1951)
Degree Days  
Heating Degree Days 4 1  
Month to date heating degree days 6 20  
Since 1 June heating degree days 64 86  
Since 1 July heating degree days 6 31  
Cooling Degree Days 0 5  
Month to date cooling degree days 143 135  
Year to date cooling degree days 548 500  
Since 1 June cooling degree days 538 463  
Growing Degree Days 11 (Base 50)    
Moisture  
Dew Point 49 °F    
Average Humidity 73    
Maximum Humidity 96    
Minimum Humidity 44    
Precipitation  
Precipitation 0.00 in 0.11 in 0.96 in (2016)
Month to date precipitation 0.51 2.71  
Year to date precipitation 20.70 20.16  
Sea Level Pressure  
Sea Level Pressure 30.29 in    
Wind  
Wind Speed 3 mph ()    
Max Wind Speed 13 mph    
Max Gust Speed 23 mph    
Visibility 8.6 miles    
Events      
T = Trace of Precipitation, MM = Missing Value Source: Averaged Metar Reports

Daily Weather History Graph

Daily Weather History Graph

Search for Another Location

Airport or City:

Astronomy

Aug. 24, 2019 Rise Set
Actual Time 6:54 AM EDT 8:25 PM EDT
Civil Twilight 6:25 AM EDT 8:54 PM EDT
Nautical Twilight 5:49 AM EDT 9:29 PM EDT
Astronomical Twilight 5:11 AM EDT 10:07 PM EDT
Moon 12:44 AM EDT (8/24) 3:43 PM EDT (8/24)
Length of Visible Light 14h 29m
Length of Day
13h 30m
Last Quarter, 39% of the Moon is Illuminated
Aug 24
Last Quarter
Aug 30
New
Sep 5
First Quarter
Sep 14
Full
Sep 21
Last Quarter

Hourly Weather History & Observations

Time (EDT) Temp. Dew Point Humidity Pressure Visibility Wind Dir Wind Speed Gust Speed Precip Events Conditions
12:56 AM 55.9 °F 51.1 °F 84% 30.27 in 10.0 mi NNE 3.5 mph - N/A   Clear
1:56 AM 53.1 °F 50.0 °F 89% 30.27 in 10.0 mi Calm Calm - N/A   Clear
2:56 AM 51.1 °F 48.9 °F 92% 30.27 in 10.0 mi Calm Calm - N/A   Clear
3:56 AM 50.0 °F 48.0 °F 93% 30.27 in 10.0 mi NE 3.5 mph - N/A   Clear
4:56 AM 51.1 °F 48.0 °F 89% 30.29 in 10.0 mi Calm Calm - N/A   Clear
5:17 AM 48.0 °F 46.0 °F 93% 30.30 in 0.8 mi Calm Calm - N/A   Clear
5:25 AM 48.9 °F 46.9 °F 93% 30.30 in 2.5 mi Calm Calm - N/A   Clear
5:32 AM 50.0 °F 46.9 °F 89% 30.30 in 10.0 mi Calm Calm - N/A   Clear
5:56 AM 48.0 °F 46.0 °F 93% 30.31 in 2.0 mi Calm Calm - N/A   Clear
6:03 AM 48.0 °F 46.9 °F 96% 30.31 in 1.0 mi Calm Calm - N/A   Clear
6:12 AM 48.0 °F 46.0 °F 93% 30.31 in 3.0 mi Calm Calm - N/A   Clear
6:56 AM 48.0 °F 46.0 °F 93% 30.32 in 10.0 mi Calm Calm - N/A   Clear
7:56 AM 50.0 °F 46.9 °F 89% 30.33 in 10.0 mi NE 3.5 mph - N/A   Clear
8:56 AM 59.0 °F 52.0 °F 78% 30.32 in 10.0 mi NE 4.6 mph - N/A   Clear
9:56 AM 64.0 °F 52.0 °F 65% 30.32 in 10.0 mi NE 8.1 mph - N/A   Clear
10:56 AM 66.0 °F 52.0 °F 60% 30.31 in 10.0 mi ENE 9.2 mph - N/A   Partly Cloudy
11:56 AM 70.0 °F 50.0 °F 49% 30.32 in 10.0 mi ENE 11.5 mph 17.3 mph N/A   Mostly Cloudy
12:56 PM 68.0 °F 50.0 °F 52% 30.30 in 10.0 mi North 5.8 mph - N/A   Overcast
1:56 PM 71.1 °F 48.9 °F 45% 30.29 in 10.0 mi East 5.8 mph - N/A   Scattered Clouds
2:56 PM 72.0 °F 48.9 °F 44% 30.28 in 10.0 mi NNE 11.5 mph - N/A   Clear
3:56 PM 73.0 °F 50.0 °F 44% 30.27 in 10.0 mi NE 5.8 mph - N/A   Mostly Cloudy
4:56 PM 73.0 °F 50.0 °F 44% 30.25 in 10.0 mi NNE 6.9 mph - N/A   Clear
5:56 PM 72.0 °F 50.0 °F 46% 30.25 in 10.0 mi NE 8.1 mph - N/A   Partly Cloudy
6:56 PM 72.0 °F 50.0 °F 46% 30.25 in 10.0 mi NNE 8.1 mph - N/A   Clear
7:56 PM 68.0 °F 51.1 °F 55% 30.25 in 10.0 mi NE 5.8 mph - N/A   Clear
8:56 PM 63.0 °F 51.1 °F 65% 30.25 in 10.0 mi NE 4.6 mph - N/A   Clear
9:56 PM 60.1 °F 51.1 °F 72% 30.26 in 10.0 mi NE 3.5 mph - N/A   Clear
10:56 PM 57.9 °F 51.1 °F 78% 30.26 in 10.0 mi Calm Calm - N/A   Clear
11:56 PM 53.1 °F 51.1 °F 93% 30.26 in 10.0 mi Calm Calm - N/A   Clear